Regional Weather Roundup
Issued by NWS Pendleton, OR

Home | Current Version | Previous Version | Text Only | Print | Product List | Glossary On
Versions: 1 2 3 4 5 6 7 8 9 10 11 12 13 14 15 16 17 18 19 20 21 22 23 24 25 26 27 28 29 30 31 32 33 34 35 36 37 38 39 40 41 42 43 44 45 46 47 48 49 50
000
ASUS46 KPDT 211104
RWRPDT
PENDLETON REGIONAL WEATHER ROUNDUP
NATIONAL WEATHER SERVICE PENDLETON OREGON
400 AM PDT SUN SEP 21 2014

NOTE: FAIR INDICATES FEW OR NO CLOUDS BELOW 12,000 FEET WITH NO
SIGNIFICANT WEATHER AND/OR OBSTRUCTIONS TO VISIBILITY.

# INDICATES UNOFFICIAL STATION AND DATA

WAZ520-211210-
EAST SLOPES OF WASHINGTON CASCADES

CITY            SKY/WX      TMP DP  RH  WIND    PRES   REMARKS
#BULLFROG       N/A         46  45  96  CALM    N/A
#BUMPING DAM    N/A         47  N/A N/A N7      N/A
#CLE ELUM HS    N/A         48  44  86  CALM    29.98S
#CLE ELUM 2NW   N/A         47  44  89  CALM    N/A
#CLE ELUM LAKE  N/A         61  44  53  CALM    29.91S
#CLIFFDEL 2NW   N/A         49  43  80  S1      N/A
#EASTON DOT     N/A         55  41  59  N1      N/A
#GLENWOOD       N/A         47  45  93  CALM    29.93S
#MANASTASH CYN  N/A         53  41  64  CALM    30.03S
#NELSON         N/A         48  45  89  CALM    29.98S
#NELSON 3SW     N/A         54  44  69  CALM    30.14R
#NILE           N/A         48  43  83  CALM    29.28R
#PEOH POINT     N/A         64  40  41  E5      N/A
#RONALD 2NW     N/A         58  45  62  NE1     29.93R
#SNOWDEN        N/A         56  36  47  CALM    N/A
#TEANAWAY 4NE   N/A         48  45  89  CALM    N/A
#TROUT LAKE 1NE N/A         49  46  89  CALM    29.92S
$$

WAZ521-211210-
SIMCOE HIGHLANDS

CITY            SKY/WX      TMP DP  RH  WIND    PRES   REMARKS
#BICKLETON HS   N/A         65  36  34  N7      30.09S
#SATUS PASS DOT N/A         57  39  51  CALM    N/A
#CENTERVILLE 4W N/A         62  46  56  CALM    29.74R
#CENTERVILLE 1SWN/A         47  39  74  CALM    29.89R
#GOLDENDALE     N/A         57  45  64  E2      N/A
#GOLDENDALE 1NE N/A         56  41  57  N3      N/A
#GOLDENDALE 1S  N/A         54  44  69  CALM    29.95S
#GOLDENDALE 5WNWN/A         56  44  64  CALM    29.90S
#GOODNOE HILLS  N/A         65  47  52  NW6     29.88S
#LYLE 6NE       N/A         63  48  58  N2      29.86S
$$

WAZ026-211210-
KITTITAS VALLEY

CITY            SKY/WX      TMP DP  RH  WIND    PRES   REMARKS
ELLENSBURG AP   CLEAR       51  44  77  CALM    30.01S
#ELLENSBURG CWU N/A         51  45  80  CALM    29.92S
#ELLENSBURG 3NE N/A         52  45  77  CALM    30.01S
#ELLENSBURG     N/A         52  50  93  CALM    N/A
#KITTITAS 3S    N/A         45  43  93  CALM    29.95S
#MANASTASH RDG  N/A         62  62  100 W2      N/A
#ROCKY CYN DOT  N/A         54  45  71  W2      N/A
#RYEGRASS DOT   N/A         64  43  46  W2      N/A
#THORP 6N       N/A         57  43  59  NW5     29.96S
$$

WAZ027-211210-
YAKIMA VALLEY

CITY            SKY/WX      TMP DP  RH  WIND    PRES   REMARKS
SUNNYSIDE AP    CLOUDY      50  48  93  CALM    29.94S
YAKIMA AIRPORT  CLEAR       54  47  77  NW6     29.98S
YAKIMA-VAGABOND CLEAR       58  42  55  VRB2    30.00S
#COWICHE 1N     N/A         61  47  60  NW3     30.16S
#DONALD 2NE     N/A         67  42  40  S1      30.28S
#GRANDVIEW      N/A         56  50  80  CALM    29.93S
#MABTON         N/A         56  48  74  CALM    29.93S
#MOXEE 2E       N/A         57  42  57  CALM    29.92F
#NACHES 2SW     N/A         61  48  62  W5      30.01F
#PARKER DOT     N/A         70  45  41  S13     N/A
#SELAH 8E       N/A         58  39  49  E6      N/A
#TERRACE HTS    N/A         57  48  72  CALM    29.89S
#TOPPENISH      N/A         61  50  67  CALM    29.84S
#I82 S UMTANUM RN/A         63  46  54  NE6     N/A
#UNION GAP DOT  N/A         62  47  58  N2      N/A
#WAPATO 4NE     N/A         67  42  40  S1      30.28S
#WEST VALLEY    N/A         58  47  67  CALM    29.92R
#W YAKIMA       N/A         63  48  58  NW5     29.92S
#WHITE SWAN 5E  N/A         60  49  67  CALM    29.92F
#WILEY CITY 3W  N/A         63  55  75  CALM    29.98S
#ZILLAH DOT     N/A         60  51  72  W5      N/A
$$

WAZ028-211210-
LOWER COLUMBIA BASIN...WASHINGTON

CITY            SKY/WX      TMP DP  RH  WIND    PRES   REMARKS
PASCO           CLEAR       55  49  80  NW5     29.94R
PROSSER AWOS    N/A         54  50  86  SE1     29.97S
RICHLAND AWOS   CLEAR       59  46  62  NW6     29.93S
#BASIN CITY 5SW N/A         58  48  69  CALM    29.93F
#BENTON CITY    N/A         58  50  75  CALM    29.82S
#CONNELL 5N     N/A         56  43  62  NW5     29.91S
#CONNELL 5NW    N/A         54  44  69  N5      29.87S
#ELTOPIA        N/A         59  46  62  CALM    29.88R
#ELTOPIA 6NW    N/A         60  47  62  N7      28.91S
#KENNEWICK 3S   N/A         63  47  56  CALM    29.91S
#PASCO-BROADMOORN/A         60  50  69  CALM    29.81R
#PATERSON       N/A         61  52  72  NE1     29.89S
#PROSSER DOT    N/A         57  51  80  CALM    N/A
#PROSSER        N/A         64  47  54  SW2     29.91S
#SAGEMOOR 2W    N/A         58  50  75  SW5     29.77S
#TOUCHET 2S     N/A         46  43  89  CALM    29.90S
#WEST PASCO     N/A         60  48  64  CALM    29.91S
$$

WAZ029-211210-
FOOTHILLS OF THE BLUES...WASHINGTON

CITY            SKY/WX      TMP DP  RH  WIND    PRES   REMARKS
WALLA WALLA AP  CLEAR       61  46  58  SE5     29.95S
#DAYTON SCHOOL  N/A         54  39  57  CALM    29.95S
#LOWDEN 2SE     N/A         51  48  89  E1      29.89S
#PLEASANT VIEW 1N/A         62  42  48  CALM    29.92S
#PRESCOTT       N/A         54  42  64  CALM    29.89R
#SUDBURY        N/A         50  N/A N/A E3      N/A
#WHITMAN COLLEGEN/A         65  49  56  E2      29.94S
#WAITSBURG 8N   N/A         53  31  43  CALM    29.88S
#WALLA WALLA 5E N/A         58  41  53  W7      N/A
#WALLA WALLA U  N/A         59  50  72  CALM    29.90S
#WHITMAN MISSIONN/A         54  48  80  CALM    29.92S
$$

WAZ030-211210-
BLUE MOUNTAINS...WASHINGTON

CITY            SKY/WX      TMP DP  RH  WIND    PRES   REMARKS
$$

ORZ009-041-WAZ024-211210-
COLUMBIA RIVER GORGE

CITY            SKY/WX      TMP DP  RH  WIND    PRES   REMARKS
HOOD RIVER AP   PTCLDY      59  50  72  S3      29.94S
THE DALLES AP   CLEAR       60  49  67  CALM    29.93R
#ARLINGTON AIRPON/A         62  46  56  S1      29.95S
#ARLINGTON HS   N/A         61  46  58  CALM    29.81S
#MARYHILL       N/A         65  46  50  CALM    N/A
#MARYHILL 2W    N/A         65  50  58  CALM    N/A
#MOSIER 1S      N/A         62  39  43  CALM    29.94S
#MURDOCK        N/A         63  52  67  CALM    29.94R
#RUFUS DOT      N/A         64  47  54  CALM    N/A

$$

ORZ510-211210-
NORTH CENTRAL OREGON

CITY            SKY/WX      TMP DP  RH  WIND    PRES   REMARKS
#CHENOWITH 1W   N/A         70  44  39  NE2     N/A
#COW CYN RST AREN/A         64  45  50  N2      N/A
#DUFUR 9E       N/A         71  47  42  SW2     29.93S
#GRASS VALLEY   N/A         50  44  80  S1      N/A
#GRASS VALLEY 1SN/A         58  45  62  CALM    29.93R
#KENT DOT       N/A         61  41  48  NE3     N/A
#MAUPIN SCHOOL  N/A         60  46  60  CALM    28.85R
#MORO SCHOOL    N/A         54  47  77  CALM    29.99S
#SHANIKO 5WSW   N/A         63  42  46  NE12    N/A
#SHANIKO 4NW    N/A         62  44  52  E9      30.05S
#TYGH VALLEY 2NEN/A         57  45  64  CALM    29.92S
#WAPANITIA AIRPON/A         57  46  67  CALM    29.93S
#WASCO DOT      N/A         54  45  71  SE1     N/A
#WASCO 5NE      N/A         61  46  58  CALM    29.91S
$$

ORZ511-211210-
CENTRAL OREGON

CITY            SKY/WX      TMP DP  RH  WIND    PRES   REMARKS
BEND AIRPORT    PTCLDY      54  43  66  CALM    30.07S
MADRAS AIRPORT  CLEAR       52  43  71  SE8     30.03S
REDMOND AIRPORT PTCLDY      50  41  71  CALM    30.04S
#BEND 6E        N/A         52  41  66  CALM    29.85R
#BEND 1SW       N/A         49  40  71  E1      N/A
#BEND-AWBREY    N/A         58  46  64  CALM    29.90F
#BEND-KIM LN    N/A         54  47  77  CALM    30.03S
#CROOKED RVR RANN/A         56  45  66  CALM    29.92S
#CULVER         N/A         55  46  72  CALM    29.99S
#LAKE BILLY CHINN/A         59  30  33  CALM    30.07S
#POWELL BUTTE 3EN/A         53  44  71  S1      N/A
#POWELL BUTTE   N/A         56  43  62  S2      29.70S
#PRINEVILLE 3N  N/A         49  44  83  CALM    29.89S
#WARM SPRINGS   N/A         59  46  62  CALM    29.96S


ORZ509-211210-
EAST SLOPES OF OREGON CASCADES

CITY            SKY/WX      TMP DP  RH  WIND    PRES   REMARKS
#BLUE BOX PASS  N/A         60   6  11  CALM    N/A
#CAMP SHERMAN   N/A         44  39  82  CALM    29.96R
#LA PINE DOT    N/A         48  38  68  CALM    N/A
#LA PINE 4NW    N/A         48  39  71  CALM    29.96R
#LAVA BUTTE DOT N/A         50  41  71  CALM    N/A
#MT BACHELOR-MIDN/A         59  36  42  E16     N/A
#SISTERS AIRPOR N/A         46  43  89  CALM    29.91S
#SISTERS ODOT   N/A         46  N/A N/A CALM    N/A
#SISTERS 3N     N/A         45  34  65  CALM    N/A
#SUNRIVER       N/A         51  45  80  CALM    29.81S
#SUNRIVER AP    N/A         52  44  74  CALM    29.88R
#SUTTLE LK DOT  N/A         46  43  89  E22     N/A    WCI 38
#TUMALO 3W      N/A         62  45  54  W3      29.79S
#WANOGA BUTTE D N/A         61  40  46  NE3     N/A

$$

ORZ044-211210-
LOWER COLUMBIA BASIN...OREGON

CITY            SKY/WX      TMP DP  RH  WIND    PRES   REMARKS
HERMISTON       CLEAR       52  46  80  SE3     29.93S
#BOARDMAN SCHOOLN/A         57  47  69  CALM    29.91S
#BOARDMAN 3W    N/A         62  52  70  S2      29.62S
#BOARDMAN 8SW   N/A         58  49  72  CALM    29.90S
#ECHO 8SW       N/A         58  45  62  SW5     29.91R
#IONE SCHOOL    N/A         56  44  64  CALM    29.95S
#IRRIGON 4NW    N/A         60  54  81  NE5     N/A
#UMATILLA       N/A         57  47  69  CALM    29.90S
$$

ORZ507-211210-
NORTHERN FOOTHILLS OF THE BLUES

CITY            SKY/WX      TMP DP  RH  WIND    PRES   REMARKS
PENDLETON AIRPT CLEAR       58  45  62  S7      29.96R
#ADAMS 3WNW     N/A         50  41  71  CALM    29.91S
#ATHENA         N/A         51  44  77  CALM    29.93S
#HELIX SCHOOL   N/A         51  42  71  CALM    29.91S
#HELIX 3N       N/A         59  45  60  S5      29.94S
#HOLDMAN 5SE    N/A         55  45  69  E1      29.96S
#HOLDMAN 6E     N/A         59  46  62  CALM    29.72S
#M-F GROVE ELEM N/A         57  42  57  CALM    29.93S
#M-FREEWATER 5SEN/A         59  44  57  CALM    29.95R
#PENDLETON DNTN N/A         54  38  55  E1      29.96S
#PDT AQUATIC CTRN/A         56  39  53  CALM    29.97S
#PENDLETON 5NE  N/A         51  43  74  CALM    29.92R
#PDT SUNRIDGE   N/A         51  44  77  CALM    29.97R
#PENDLETON 7NW  N/A         54  43  66  CALM    26.36R
#PILOT ROCK     N/A         61  43  51  CALM    29.99R
#TUTUILLA       N/A         49  44  83  CALM    29.93S
#UMAPINE 2E     N/A         53  49  86  S1      29.91R
#WESTON SCHOOL  N/A         63  40  43  CALM    29.93R

$$

ORZ508-211210-
SOUTHERN FOOTHILLS OF THE BLUES

CITY            SKY/WX      TMP DP  RH  WIND    PRES   REMARKS
LEXINGTON       CLEAR       61  46  58  E8      29.99S
#AJAX           N/A         65  41  41  CALM    29.93S
#CONDON SCHOOL  N/A         62  47  58  CALM    29.98S
#CONDON 5W      N/A         63  43  48  NE8     30.01S
#FOSSIL SCHOOL  N/A         52  43  71  CALM    30.00S
#HEPPNER EOC    N/A         58  45  62  E9      29.87S
#HEPPNER 4NE    N/A         59  46  62  SE1     29.91S
#LEXINGTON 2SE  N/A         59  46  62  SE7     29.93S
#MIKKALO        N/A         61  43  51  SE1     29.97S
#OLEX 4N        N/A         58  45  62  S1      29.93S
#RUGGS 5NE      N/A         56  42  59  S2      30.17S
#RUGGS 2SW      N/A         60  45  58  S8      29.92S

$$

ORZ502-503-211210-
BLUE MOUNTAINS

CITY            SKY/WX      TMP DP  RH  WIND    PRES   REMARKS
MEACHAM         CLEAR       40  37  89  CALM    30.08R
#BATTLE MTN DOT N/A         54  49  83  S1      N/A
#HARDMAN 10S    N/A         57  43  59  CALM    30.13R
#HEPPNER 15SE   N/A         54  42  64  CALM    30.00R
#LADD CYN SMT   N/A         45  37  73  E2      N/A
#LADD CREEK ODOTN/A         52  43  71  S6      N/A
#N POWDER DOT   N/A         43  42  96  NE3     N/A
#PIKES PEAK     N/A         73  40  30  CALM    27.99S
#TOLLGATE       N/A         57  40  53  CALM    30.05S
#TOLLGATE 9W    N/A         59  40  49  E1      N/A
#TROY SCHOOL    N/A         53  46  77  CALM    29.83R
#UKIAH          N/A         41  38  89  CALM    30.04R
#WESTON 4E      N/A         66  41  40  E1      29.83S
$$

ORZ505-211210-
JOHN DAY BASIN

CITY            SKY/WX      TMP DP  RH  WIND    PRES   REMARKS
JOHN DAY        PTCLDY      58  40  51  SE10    30.07S
#JOHN DAY KJDY  N/A         53  45  74  CALM    30.15F
#MONUMENT HS    N/A         52  43  71  CALM    30.02R
#MT. VERNON 5SE N/A         61  42  50  CALM    30.03S
#WINLOCK        N/A         58  43  57  CALM    30.11S
$$

ORZ506-211210-
OCHOCO AND JOHN DAY HIGHLANDS

CITY            SKY/WX      TMP DP  RH  WIND    PRES   REMARKS
#BUCK CREEK DOT N/A         60  45  58  CALM    N/A
#HORSE RIDGE DO N/A         41  32  70  CALM    N/A
#KEYES SMT DOT  N/A         54  43  66  E1      N/A
#PAULINA SCHOOL N/A         46  36  68  CALM    30.06S
#PINE MTN OBS   N/A         63  41  44  E7      N/A
#PRAIRIE CITY   N/A         44  38  79  CALM    30.12R
#SENECA 9NW     N/A         41  36  82  CALM    29.96S
$$

ORZ049-211210-
GRANDE RONDE VALLEY

CITY            SKY/WX      TMP DP  RH  WIND    PRES   REMARKS
LA GRANDE       CLEAR       48  30  49  CALM    30.04R
#COVE           N/A         51  44  77  NE1     29.96S
#COVE SCHOOL    N/A         51  43  74  CALM    30.02S
#COVE 6NW       N/A         46  39  76  CALM    30.01S
#ELGIN 3N       N/A         49  39  68  CALM    29.78R
#ELGIN 1E       N/A         49  39  68  CALM    N/A
#IMBLER SCHOOL  N/A         51  41  68  N1      30.01R
#LADD CYN DOT   N/A         57  42  57  SE7     N/A
#LA GRANDE ELEM N/A         54  43  66  CALM    30.02R
#UNION 1S       N/A         53  43  69  CALM    29.88R
$$

ORZ050-211210-
WALLOWA COUNTY

CITY            SKY/WX      TMP DP  RH  WIND    PRES   REMARKS
#ENTERPRISE AP  N/A         49  35  58  CALM    30.02S
#ENTERPRISE HS  N/A         43  38  82  CALM    30.09S
#IMNAHA SCHOOL  N/A         54  42  64  CALM    30.00S
#IMNAHA 10S     N/A         58  40  51  SW5     30.05S
#JOSEPH 3N      N/A         43  37  79  CALM    30.10S
#JOSEPH 3W      N/A         58  33  39  SW2     29.95S
#LOSTINE        N/A         47  39  74  CALM    29.77S
#MT HOWARD 8000 N/A         58  32  37  S2      30.35S
#PROMISE 1S     N/A         54  42  64  CALM    30.02S
#SHEEP RDG 7000 N/A         63  30  29  CALM    29.92F
#WALLOWA SCHOOL N/A         43  39  86  CALM    30.90R



$$



USA.gov is the U.S. government's official web portal to all federal, state and local government web resources and services.